Location: STAR School
(35.3054°N, 111.2976°W)
Time: 06:52:42
(UTC-07:00)

Transit 2A Rocket - Pass Details

Date: 29 May 2019
Orbit: 587 x 917 km, 66.7° (Epoch: 24 June)

Event Time Altitude Azimuth Distance (km) Brightness Sun altitude
Rises 00:36:04 0° 343° (NNW) 3,372 9.3 -33.0°
Reaches altitude 10° 00:39:02 10° 356° (N) 2,378 8.4 -33.0°
Maximum altitude 00:43:29 25° 52° (NE) 1,477 6.8 -32.9°
Enters shadow 00:44:00 25° 61° (ENE) 1,482 6.7 -32.9°
